Find Starlink 3344

NORAD ID: 51110 Int'l Des: 2022-005 Owner: SPXS Country: US Constellation: starlink operational
LEOCIRCULAR

Current View

Loading 3D Globe...

About Starlink 3344

Starlink 3344 (NORAD 51110) is a starlink constellation satellite (v1.5) launched Jan 19, 2022 by SPXS of US. It operates in LEO, CIRCULAR orbit with a mass of 297.00 kg.

About Starlink 3344

Description loading...

Upcoming Passes

Passes for default location (London). Set your location on the main map for personalized predictions.

Altitude History

Loading altitude history...

Two-Line Element Set

1 51110U 22005G 26171.43739289 -.00000625 00000-0 -21211-4 0 9995
2 51110 53.1587 187.7310 0001267 93.8561 266.2575 15.08827069244395
Epoch: Jun 20, 2026 • Age: 23 hours

Current Status

Altitude 545.3 km
Velocity 7.60 km/s
Sub-Earth Point 52.25°N, 148.53°W
Launch Date Jan 19, 2022
Age 4.4 years
Type internet

Technical Details

Classification Payload
Mass 297.00 kg
Dry Mass 275.00 kg
Total Mass 297.00 kg
Length 0.20 m
Diameter 2.80 m
Span 9.00 m
Shape Box + pan
Manufacturer SPXS
Bus Type Starlink
Phase Status In Orbit
Owner/State SPXS/US

Most Searched